sat.trackr.live / text

‹ back to catalog

STARLINK-34452

NORAD 64425 · 2025-129P

PAYLOAD ACTIVE UNKNOWN

§ Identity

Operator
Country
US
Launch date
2025-06-17
Launch site
AFWTR
Launch vehicle
Mass (kg)
RCS (m²)

Purposes: comms

External: N2YO · Heavens-Above · Gunter

§ Orbital elements

Epoch: 2026-05-25T05:20:38.275872Z

Period
96.11 min
Inclination
70.0005°
Eccentricity
0.0003287
Mean motion
14.98336879 rev/d
Perigee alt
569.8 km
Apogee alt
574.3 km
Semi-major
6,950.2 km
B*
2.5294e-4
RAAN
241.3865°
Arg perigee
262.6649°
Mean anomaly
97.4137°
Rev number
5,275

§ Raw data

STARLINK-344521 64425U 25129P   26145.22266523  .00002927  00000+0  25294-3 0  99902 64425  70.0005 241.3865 0003287 262.6649  97.4137 14.98336879 52757

JSON: /api/v1/satellites/64425 · /tle

For live sub-satellite position, see the globe view (requires WebGL).

§ Visibility from observer

Set your observer location to see the next 7 days of passes ≥ 10°. The values pass through the URL so the page stays shareable.

No JS? Fill the form by hand. The geolocation button needs JavaScript.